"Time","Value","Approval","myLocation"
"2023-03-30 00:00",37.9905245235864,"Approved","OW403"
"2023-03-30 01:00",37.9865170259294,"Approved","OW403"
"2023-03-30 02:00",37.9855095282724,"Approved","OW403"
"2023-03-30 03:00",37.9865020306154,"Approved","OW403"
"2023-03-30 04:00",37.9864945329584,"Approved","OW403"
"2023-03-30 05:00",37.9844870353015,"Approved","OW403"
"2023-03-30 06:00",37.9804795376445,"Approved","OW403"
"2023-03-30 07:00",37.9774720399875,"Approved","OW403"
"2023-03-30 08:00",37.9764645423305,"Approved","OW403"
"2023-03-30 09:00",37.9754570446735,"Approved","OW403"
"2023-03-30 10:00",37.9734495470166,"Approved","OW403"
"2023-03-30 11:00",37.9724420493596,"Approved","OW403"
"2023-03-30 12:00",37.9724345517026,"Approved","OW403"
"2023-03-30 13:00",37.9724270540456,"Approved","OW403"
"2023-03-30 14:00",37.9734195563886,"Approved","OW403"
"2023-03-30 15:00",37.9794120587316,"Approved","OW403"
"2023-03-30 16:00",37.9774045610747,"Approved","OW403"
"2023-03-30 17:00",37.9903970634177,"Approved","OW403"
"2023-03-30 18:00",37.9963895657607,"Approved","OW403"
"2023-03-30 19:00",37.9963820681037,"Approved","OW403"
"2023-03-30 20:00",37.9953745704467,"Approved","OW403"
"2023-03-30 21:00",37.9923670727898,"Approved","OW403"
"2023-03-30 22:00",37.9933595751328,"Approved","OW403"
"2023-03-30 23:00",37.9923520774758,"Approved","OW403"
"2023-03-31 00:00",37.9933445798188,"Approved","OW403"
"2023-03-31 01:00",37.9953370821618,"Approved","OW403"
"2023-03-31 02:00",37.9953295845048,"Approved","OW403"
"2023-03-31 03:00",37.9973220868479,"Approved","OW403"
"2023-03-31 04:00",37.9983145891909,"Approved","OW403"
"2023-03-31 05:00",37.9993070915339,"Approved","OW403"
"2023-03-31 06:00",37.9982995938769,"Approved","OW403"
"2023-03-31 07:00",37.9952920962199,"Approved","OW403"
"2023-03-31 08:00",37.9912845985629,"Approved","OW403"
"2023-03-31 09:00",37.989277100906,"Approved","OW403"
"2023-03-31 10:00",37.987269603249,"Approved","OW403"
"2023-03-31 11:00",37.986262105592,"Approved","OW403"
"2023-03-31 12:00",37.985254607935,"Approved","OW403"
"2023-03-31 13:00",37.985247110278,"Approved","OW403"
"2023-03-31 14:00",37.9862396126211,"Approved","OW403"
"2023-03-31 15:00",37.9882321149641,"Approved","OW403"
"2023-03-31 16:00",37.9902246173071,"Approved","OW403"
"2023-03-31 17:00",38.0022171196501,"Approved","OW403"
"2023-03-31 18:00",38.0042096219931,"Approved","OW403"
"2023-03-31 19:00",38.0042021243361,"Approved","OW403"
"2023-03-31 20:00",38.0051946266792,"Approved","OW403"
"2023-03-31 21:00",38.0041871290222,"Approved","OW403"
"2023-03-31 22:00",38.0001796313652,"Approved","OW403"
"2023-03-31 23:00",38.0001721337082,"Approved","OW403"
"2023-04-01 00:00",37.9961646360512,"Approved","OW403"
"2023-04-01 01:00",37.9941571383943,"Approved","OW403"
"2023-04-01 02:00",37.9901496407373,"Approved","OW403"
"2023-04-01 03:00",37.9891421430803,"Approved","OW403"
"2023-04-01 04:00",37.9871346454233,"Approved","OW403"
"2023-04-01 05:00",37.9841271477663,"Approved","OW403"
"2023-04-01 06:00",37.9791196501093,"Approved","OW403"
"2023-04-01 07:00",37.9751121524524,"Approved","OW403"
"2023-04-01 08:00",37.9761046547954,"Approved","OW403"
"2023-04-01 09:00",37.9720971571384,"Approved","OW403"
"2023-04-01 10:00",37.9700896594814,"Approved","OW403"
"2023-04-01 11:00",37.9680821618244,"Approved","OW403"
"2023-04-01 12:00",37.9680746641674,"Approved","OW403"
"2023-04-01 13:00",37.9690671665105,"Approved","OW403"
"2023-04-01 14:00",37.9730596688535,"Approved","OW403"
"2023-04-01 15:00",37.9750521711965,"Approved","OW403"
"2023-04-01 16:00",37.9820446735395,"Approved","OW403"
"2023-04-01 17:00",37.9880371758825,"Approved","OW403"
"2023-04-01 18:00",37.9880296782256,"Approved","OW403"
"2023-04-01 19:00",37.9900221805686,"Approved","OW403"
"2023-04-01 20:00",37.9960146829116,"Approved","OW403"
"2023-04-01 21:00",37.9950071852546,"Approved","OW403"
"2023-04-01 22:00",37.9929996875976,"Approved","OW403"
"2023-04-01 23:00",37.9909921899406,"Approved","OW403"
"2023-04-02 00:00",37.9909846922837,"Approved","OW403"
"2023-04-02 01:00",37.9929771946267,"Approved","OW403"
"2023-04-02 02:00",37.9929696969697,"Approved","OW403"
"2023-04-02 03:00",37.9939621993127,"Approved","OW403"
"2023-04-02 04:00",37.9929547016557,"Approved","OW403"
"2023-04-02 05:00",37.9919472039987,"Approved","OW403"
"2023-04-02 06:00",37.9899397063418,"Approved","OW403"
"2023-04-02 07:00",37.9909322086848,"Approved","OW403"
"2023-04-02 08:00",37.9899247110278,"Approved","OW403"
"2023-04-02 09:00",37.9909172133708,"Approved","OW403"
"2023-04-02 10:00",37.9879097157138,"Approved","OW403"
"2023-04-02 11:00",37.9829022180569,"Approved","OW403"
"2023-04-02 12:00",37.9828947203999,"Approved","OW403"
"2023-04-02 13:00",37.9818872227429,"Approved","OW403"
"2023-04-02 14:00",37.9828797250859,"Approved","OW403"
"2023-04-02 15:00",37.9838722274289,"Approved","OW403"
"2023-04-02 16:00",37.9858647297719,"Approved","OW403"
"2023-04-02 17:00",37.998857232115,"Approved","OW403"
"2023-04-02 18:00",38.001849734458,"Approved","OW403"
"2023-04-02 19:00",37.997842236801,"Approved","OW403"
"2023-04-02 20:00",37.995834739144,"Approved","OW403"
"2023-04-02 21:00",37.992827241487,"Approved","OW403"
"2023-04-02 22:00",37.9898197438301,"Approved","OW403"
"2023-04-02 23:00",37.9898122461731,"Approved","OW403"
"2023-04-03 00:00",37.9918047485161,"Approved","OW403"
"2023-04-03 01:00",37.9907972508591,"Approved","OW403"
"2023-04-03 02:00",37.9897897532021,"Approved","OW403"
"2023-04-03 03:00",37.9897822555451,"Approved","OW403"
"2023-04-03 04:00",37.9887747578882,"Approved","OW403"
"2023-04-03 05:00",37.9867672602312,"Approved","OW403"
"2023-04-03 06:00",37.9837597625742,"Approved","OW403"
"2023-04-03 07:00",37.9817522649172,"Approved","OW403"
"2023-04-03 08:00",37.9847447672602,"Approved","OW403"
"2023-04-03 09:00",37.9837372696033,"Approved","OW403"
"2023-04-03 10:00",37.9817297719463,"Approved","OW403"
"2023-04-03 11:00",37.9797222742893,"Approved","OW403"
"2023-04-03 12:00",37.9757147766323,"Approved","OW403"
"2023-04-03 13:00",37.9747072789753,"Approved","OW403"
"2023-04-03 14:00",37.9746997813183,"Approved","OW403"
"2023-04-03 15:00",37.9816922836614,"Approved","OW403"
"2023-04-03 16:00",37.9766847860044,"Approved","OW403"
"2023-04-03 17:00",37.9906772883474,"Approved","OW403"
"2023-04-03 18:00",37.9986697906904,"Approved","OW403"
"2023-04-03 19:00",37.9936622930334,"Approved","OW403"
"2023-04-03 20:00",37.9886547953764,"Approved","OW403"
"2023-04-03 21:00",37.9886472977195,"Approved","OW403"
"2023-04-03 22:00",37.9876398000625,"Approved","OW403"
"2023-04-03 23:00",37.9866323024055,"Approved","OW403"
"2023-04-04 00:00",37.9866248047485,"Approved","OW403"
"2023-04-04 01:00",37.9866173070915,"Approved","OW403"
"2023-04-04 02:00",37.9866098094346,"Approved","OW403"
"2023-04-04 03:00",37.9866023117776,"Approved","OW403"
"2023-04-04 04:00",37.9855948141206,"Approved","OW403"
"2023-04-04 05:00",37.9835873164636,"Approved","OW403"
"2023-04-04 06:00",37.9795798188066,"Approved","OW403"
"2023-04-04 07:00",37.9755723211496,"Approved","OW403"
"2023-04-04 08:00",37.9735648234927,"Approved","OW403"
"2023-04-04 09:00",37.9715573258357,"Approved","OW403"
"2023-04-04 10:00",37.9705498281787,"Approved","OW403"
"2023-04-04 11:00",37.9695423305217,"Approved","OW403"
"2023-04-04 12:00",37.9695348328647,"Approved","OW403"
"2023-04-04 13:00",37.9705273352077,"Approved","OW403"
"2023-04-04 14:00",37.9755198375508,"Approved","OW403"
"2023-04-04 15:00",37.9795123398938,"Approved","OW403"
"2023-04-04 16:00",37.9785048422368,"Approved","OW403"
"2023-04-04 17:00",37.9944973445798,"Approved","OW403"
"2023-04-04 18:00",37.9964898469228,"Approved","OW403"
"2023-04-04 19:00",37.9984823492659,"Approved","OW403"
"2023-04-04 20:00",37.9964748516089,"Approved","OW403"
"2023-04-04 21:00",37.9974673539519,"Approved","OW403"
"2023-04-04 22:00",37.9944598562949,"Approved","OW403"
"2023-04-04 23:00",37.9924523586379,"Approved","OW403"
"2023-04-05 00:00",37.9924448609809,"Approved","OW403"
"2023-04-05 01:00",37.991437363324,"Approved","OW403"
"2023-04-05 02:00",37.989429865667,"Approved","OW403"
"2023-04-05 03:00",37.99142236801,"Approved","OW403"
"2023-04-05 04:00",37.987414870353,"Approved","OW403"
"2023-04-05 05:00",37.984407372696,"Approved","OW403"
"2023-04-05 06:00",37.9813998750391,"Approved","OW403"
"2023-04-05 07:00",37.9773923773821,"Approved","OW403"
"2023-04-05 08:00",37.9773848797251,"Approved","OW403"
"2023-04-05 09:00",37.9753773820681,"Approved","OW403"
"2023-04-05 10:00",37.9713698844111,"Approved","OW403"
"2023-04-05 11:00",37.9683623867541,"Approved","OW403"
"2023-04-05 12:00",37.9663548890972,"Approved","OW403"
"2023-04-05 13:00",37.9653473914402,"Approved","OW403"
"2023-04-05 14:00",37.9713398937832,"Approved","OW403"
"2023-04-05 15:00",37.9753323961262,"Approved","OW403"
"2023-04-05 16:00",37.9683248984692,"Approved","OW403"
"2023-04-05 17:00",37.9813174008122,"Approved","OW403"
"2023-04-05 18:00",37.9853099031553,"Approved","OW403"
"2023-04-05 19:00",37.9843024054983,"Approved","OW403"
"2023-04-05 20:00",37.9792949078413,"Approved","OW403"
"2023-04-05 21:00",37.9782874101843,"Approved","OW403"
"2023-04-05 22:00",37.9812799125273,"Approved","OW403"
"2023-04-05 23:00",37.9782724148704,"Approved","OW403"
"2023-04-06 00:00",37.9752649172134,"Approved","OW403"
"2023-04-06 01:00",37.9752574195564,"Approved","OW403"
"2023-04-06 02:00",37.9762499218994,"Approved","OW403"
"2023-04-06 03:00",37.9722424242424,"Approved","OW403"
"2023-04-06 04:00",37.9692349265854,"Approved","OW403"
"2023-04-06 05:00",37.9702274289285,"Approved","OW403"
"2023-04-06 06:00",37.9692199312715,"Approved","OW403"
"2023-04-06 07:00",37.9682124336145,"Approved","OW403"
"2023-04-06 08:00",37.9682049359575,"Approved","OW403"
"2023-04-06 09:00",37.9651974383005,"Approved","OW403"
"2023-04-06 10:00",37.9641899406435,"Approved","OW403"
"2023-04-06 11:00",37.9631824429866,"Approved","OW403"
"2023-04-06 12:00",37.9621749453296,"Approved","OW403"
"2023-04-06 13:00",37.9631674476726,"Approved","OW403"
"2023-04-06 14:00",37.9651599500156,"Approved","OW403"
"2023-04-06 15:00",37.9711524523586,"Approved","OW403"
"2023-04-06 16:00",37.9731449547017,"Approved","OW403"
"2023-04-06 17:00",37.9761374570447,"Approved","OW403"
"2023-04-06 18:00",37.9801299593877,"Approved","OW403"
"2023-04-06 19:00",37.9771224617307,"Approved","OW403"
"2023-04-06 20:00",37.9801149640737,"Approved","OW403"
"2023-04-06 21:00",37.9751074664167,"Approved","OW403"
"2023-04-06 22:00",37.9750999687598,"Approved","OW403"
"2023-04-06 23:00",37.9690924711028,"Approved","OW403"
"2023-04-07 00:00",37.9680849734458,"Approved","OW403"
"2023-04-07 01:00",37.9660774757888,"Approved","OW403"
"2023-04-07 02:00",37.9660699781318,"Approved","OW403"
"2023-04-07 03:00",37.9630624804749,"Approved","OW403"
"2023-04-07 04:00",37.9620549828179,"Approved","OW403"
"2023-04-07 05:00",37.9620474851609,"Approved","OW403"
"2023-04-07 06:00",37.9600399875039,"Approved","OW403"
"2023-04-07 07:00",37.9580324898469,"Approved","OW403"
"2023-04-07 08:00",37.9580249921899,"Approved","OW403"
"2023-04-07 09:00",37.958017494533,"Approved","OW403"
"2023-04-07 10:00",37.958009996876,"Approved","OW403"
"2023-04-07 11:00",37.956002499219,"Approved","OW403"
"2023-04-07 12:00",37.954995001562,"Approved","OW403"
"2023-04-07 13:00",37.953987503905,"Approved","OW403"
"2023-04-07 14:00",37.959980006248,"Approved","OW403"
"2023-04-07 15:00",37.9599725085911,"Approved","OW403"
"2023-04-07 16:00",37.9619650109341,"Approved","OW403"
"2023-04-07 17:00",37.9619575132771,"Approved","OW403"
"2023-04-07 18:00",37.9629500156201,"Approved","OW403"
"2023-04-07 19:00",37.9649425179631,"Approved","OW403"
"2023-04-07 20:00",37.9659350203062,"Approved","OW403"
"2023-04-07 21:00",37.9659275226492,"Approved","OW403"
"2023-04-07 22:00",37.9619200249922,"Approved","OW403"
"2023-04-07 23:00",37.9589125273352,"Approved","OW403"
"2023-04-08 00:00",37.9599050296782,"Approved","OW403"
"2023-04-08 01:00",37.9578975320212,"Approved","OW403"
"2023-04-08 02:00",37.9578900343643,"Approved","OW403"
"2023-04-08 03:00",37.9608825367073,"Approved","OW403"
"2023-04-08 04:00",37.9618750390503,"Approved","OW403"
"2023-04-08 05:00",37.9628675413933,"Approved","OW403"
"2023-04-08 06:00",37.9628600437363,"Approved","OW403"
"2023-04-08 07:00",37.9618525460793,"Approved","OW403"
"2023-04-08 08:00",37.9608450484224,"Approved","OW403"
"2023-04-08 09:00",37.9588375507654,"Approved","OW403"
"2023-04-08 10:00",37.9598300531084,"Approved","OW403"
"2023-04-08 11:00",37.9598225554514,"Approved","OW403"
"2023-04-08 12:00",37.9618150577944,"Approved","OW403"
"2023-04-08 13:00",37.9628075601375,"Approved","OW403"
"2023-04-08 14:00",37.9618000624805,"Approved","OW403"
"2023-04-08 15:00",37.9657925648235,"Approved","OW403"
"2023-04-08 16:00",37.9707850671665,"Approved","OW403"
"2023-04-08 17:00",37.9787775695095,"Approved","OW403"
"2023-04-08 18:00",37.9777700718525,"Approved","OW403"
"2023-04-08 19:00",37.9787625741956,"Approved","OW403"
"2023-04-08 20:00",37.9797550765386,"Approved","OW403"
"2023-04-08 21:00",37.9807475788816,"Approved","OW403"
"2023-04-08 22:00",37.9827400812246,"Approved","OW403"
"2023-04-08 23:00",37.9787325835676,"Approved","OW403"
"2023-04-09 00:00",37.9787250859107,"Approved","OW403"
"2023-04-09 01:00",37.9777175882537,"Approved","OW403"
"2023-04-09 02:00",37.9747100905967,"Approved","OW403"
"2023-04-09 03:00",37.9787025929397,"Approved","OW403"
"2023-04-09 04:00",37.9806950952827,"Approved","OW403"
"2023-04-09 05:00",37.9826875976257,"Approved","OW403"
"2023-04-09 06:00",37.9816800999688,"Approved","OW403"
"2023-04-09 07:00",37.9756726023118,"Approved","OW403"
"2023-04-09 08:00",37.9746651046548,"Approved","OW403"
"2023-04-09 09:00",37.9716576069978,"Approved","OW403"
"2023-04-09 10:00",37.9706501093408,"Approved","OW403"
"2023-04-09 11:00",37.9666426116838,"Approved","OW403"
"2023-04-09 12:00",37.9626351140269,"Approved","OW403"
"2023-04-09 13:00",37.9606276163699,"Approved","OW403"
"2023-04-09 14:00",37.9586201187129,"Approved","OW403"
"2023-04-09 15:00",37.9666126210559,"Approved","OW403"
"2023-04-09 16:00",37.9666051233989,"Approved","OW403"
"2023-04-09 17:00",37.969597625742,"Approved","OW403"
"2023-04-09 18:00",37.969590128085,"Approved","OW403"
"2023-04-09 19:00",37.969582630428,"Approved","OW403"
"2023-04-09 20:00",37.964575132771,"Approved","OW403"
"2023-04-09 21:00",37.965567635114,"Approved","OW403"
"2023-04-09 22:00",37.964560137457,"Approved","OW403"
"2023-04-09 23:00",37.9625526398001,"Approved","OW403"
"2023-04-10 00:00",37.9585451421431,"Approved","OW403"
"2023-04-10 01:00",37.9555376444861,"Approved","OW403"
"2023-04-10 02:00",37.9575301468291,"Approved","OW403"
"2023-04-10 03:00",37.9565226491721,"Approved","OW403"
"2023-04-10 04:00",37.9615151515152,"Approved","OW403"
"2023-04-10 05:00",37.9655076538582,"Approved","OW403"
"2023-04-10 06:00",37.9685001562012,"Approved","OW403"
"2023-04-10 07:00",37.9704926585442,"Approved","OW403"
"2023-04-10 08:00",37.9724851608872,"Approved","OW403"
"2023-04-10 09:00",37.9724776632302,"Approved","OW403"
"2023-04-10 10:00",37.9684701655733,"Approved","OW403"
"2023-04-10 11:00",37.9664626679163,"Approved","OW403"
"2023-04-10 12:00",37.9644551702593,"Approved","OW403"
"2023-04-10 13:00",37.9654476726023,"Approved","OW403"
"2023-04-10 14:00",37.9664401749453,"Approved","OW403"
"2023-04-10 15:00",37.9664326772883,"Approved","OW403"
"2023-04-10 16:00",37.9664251796314,"Approved","OW403"
"2023-04-10 17:00",37.9654176819744,"Approved","OW403"
"2023-04-10 18:00",37.9634101843174,"Approved","OW403"
"2023-04-10 19:00",37.9624026866604,"Approved","OW403"
"2023-04-10 20:00",37.9543951890034,"Approved","OW403"
"2023-04-10 21:00",37.9583876913465,"Approved","OW403"
"2023-04-10 22:00",37.9543801936895,"Approved","OW403"
"2023-04-10 23:00",37.9533726960325,"Approved","OW403"
"2023-04-11 00:00",37.9523651983755,"Approved","OW403"
"2023-04-11 01:00",37.9473577007185,"Approved","OW403"
"2023-04-11 02:00",37.9393502030615,"Approved","OW403"
"2023-04-11 03:00",37.9353427054046,"Approved","OW403"
"2023-04-11 04:00",37.9373352077476,"Approved","OW403"
"2023-04-11 05:00",37.9353277100906,"Approved","OW403"
"2023-04-11 06:00",37.9313202124336,"Approved","OW403"
"2023-04-11 07:00",37.9323127147766,"Approved","OW403"
"2023-04-11 08:00",37.9363052171197,"Approved","OW403"
"2023-04-11 09:00",37.9352977194627,"Approved","OW403"
"2023-04-11 10:00",37.9352902218057,"Approved","OW403"
"2023-04-11 11:00",37.9332827241487,"Approved","OW403"
"2023-04-11 12:00",37.9342752264917,"Approved","OW403"
"2023-04-11 13:00",37.9342677288347,"Approved","OW403"
"2023-04-11 14:00",37.9362602311778,"Approved","OW403"
"2023-04-11 15:00",37.9522527335208,"Approved","OW403"
"2023-04-11 16:00",37.9462452358638,"Approved","OW403"
"2023-04-11 17:00",37.9502377382068,"Approved","OW403"
"2023-04-11 18:00",37.9572302405498,"Approved","OW403"
"2023-04-11 19:00",37.9612227428929,"Approved","OW403"
"2023-04-11 20:00",37.9622152452359,"Approved","OW403"
"2023-04-11 21:00",37.9572077475789,"Approved","OW403"
"2023-04-11 22:00",37.9552002499219,"Approved","OW403"
"2023-04-11 23:00",37.9591927522649,"Approved","OW403"
"2023-04-12 00:00",37.9631852546079,"Approved","OW403"
"2023-04-12 01:00",37.9571777569509,"Approved","OW403"
"2023-04-12 02:00",37.957170259294,"Approved","OW403"
"2023-04-12 03:00",37.961162761637,"Approved","OW403"
"2023-04-12 04:00",37.96115526398,"Approved","OW403"
"2023-04-12 05:00",37.957147766323,"Approved","OW403"
"2023-04-12 06:00",37.954140268666,"Approved","OW403"
"2023-04-12 07:00",37.9481327710091,"Approved","OW403"
"2023-04-12 08:00",37.9461252733521,"Approved","OW403"
"2023-04-12 09:00",37.9421177756951,"Approved","OW403"
"2023-04-12 10:00",37.9391102780381,"Approved","OW403"
"2023-04-12 11:00",37.9371027803811,"Approved","OW403"
"2023-04-12 12:00",37.9360952827242,"Approved","OW403"
"2023-04-12 13:00",37.9360877850672,"Approved","OW403"
"2023-04-12 14:00",37.9540802874102,"Approved","OW403"
"2023-04-12 15:00",37.9420727897532,"Approved","OW403"
"2023-04-12 16:00",37.9440652920962,"Approved","OW403"
"2023-04-12 17:00",37.9520577944392,"Approved","OW403"
"2023-04-12 18:00",37.9520502967823,"Approved","OW403"
"2023-04-12 19:00",37.9530427991253,"Approved","OW403"
"2023-04-12 20:00",37.9520353014683,"Approved","OW403"
"2023-04-12 21:00",37.9490278038113,"Approved","OW403"
"2023-04-12 22:00",37.9510203061543,"Approved","OW403"
"2023-04-12 23:00",37.9480128084973,"Approved","OW403"
"2023-04-13 00:00",37.9490053108404,"Approved","OW403"
"2023-04-13 01:00",37.9469978131834,"Approved","OW403"
"2023-04-13 02:00",37.9469903155264,"Approved","OW403"
"2023-04-13 03:00",37.9469828178694,"Approved","OW403"
"2023-04-13 04:00",37.9469753202124,"Approved","OW403"
"2023-04-13 05:00",37.9459678225555,"Approved","OW403"
"2023-04-13 06:00",37.9409603248985,"Approved","OW403"
"2023-04-13 07:00",37.9369528272415,"Approved","OW403"
"2023-04-13 08:00",37.9349453295845,"Approved","OW403"
"2023-04-13 09:00",37.9319378319275,"Approved","OW403"
"2023-04-13 10:00",37.9299303342705,"Approved","OW403"
"2023-04-13 11:00",37.9299228366136,"Approved","OW403"
"2023-04-13 12:00",37.9279153389566,"Approved","OW403"
"2023-04-13 13:00",37.9279078412996,"Approved","OW403"
"2023-04-13 14:00",37.9339003436426,"Approved","OW403"
"2023-04-13 15:00",37.9368928459856,"Approved","OW403"
"2023-04-13 16:00",37.9388853483287,"Approved","OW403"
"2023-04-13 17:00",37.9438778506717,"Approved","OW403"
"2023-04-13 18:00",37.9458703530147,"Approved","OW403"
"2023-04-13 19:00",37.9468628553577,"Approved","OW403"
"2023-04-13 20:00",37.9438553577007,"Approved","OW403"
"2023-04-13 21:00",37.9428478600437,"Approved","OW403"
"2023-04-13 22:00",37.9478403623867,"Approved","OW403"
"2023-04-13 23:00",37.9408328647298,"Approved","OW403"
"2023-04-14 00:00",37.9408253670728,"Approved","OW403"
"2023-04-14 01:00",37.9438178694158,"Approved","OW403"
"2023-04-14 02:00",37.9448103717588,"Approved","OW403"
"2023-04-14 03:00",37.9418028741018,"Approved","OW403"
"2023-04-14 04:00",37.9417953764449,"Approved","OW403"
"2023-04-14 05:00",37.9397878787879,"Approved","OW403"
"2023-04-14 06:00",37.9367803811309,"Approved","OW403"
"2023-04-14 07:00",37.9337728834739,"Approved","OW403"
"2023-04-14 08:00",37.9317653858169,"Approved","OW403"
"2023-04-14 09:00",37.92975788816,"Approved","OW403"
"2023-04-14 10:00",37.927750390503,"Approved","OW403"
"2023-04-14 11:00",37.927742892846,"Approved","OW403"
"2023-04-14 12:00",37.927735395189,"Approved","OW403"
"2023-04-14 13:00",37.926727897532,"Approved","OW403"
"2023-04-14 14:00",37.930720399875,"Approved","OW403"
"2023-04-14 15:00",37.9357129022181,"Approved","OW403"
"2023-04-14 16:00",37.9347054045611,"Approved","OW403"
"2023-04-14 17:00",37.9496979069041,"Approved","OW403"
"2023-04-14 18:00",37.9516904092471,"Approved","OW403"
"2023-04-14 19:00",37.9506829115901,"Approved","OW403"
"2023-04-14 20:00",37.9476754139331,"Approved","OW403"
"2023-04-14 21:00",37.9466679162762,"Approved","OW403"
"2023-04-14 22:00",37.9476604186192,"Approved","OW403"
"2023-04-14 23:00",37.9496529209622,"Approved","OW403"
"2023-04-15 00:00",37.9466454233052,"Approved","OW403"
"2023-04-15 01:00",37.9456379256482,"Approved","OW403"
"2023-04-15 02:00",37.9466304279913,"Approved","OW403"
"2023-04-15 03:00",37.9456229303343,"Approved","OW403"
"2023-04-15 04:00",37.9446154326773,"Approved","OW403"
"2023-04-15 05:00",37.9436079350203,"Approved","OW403"
"2023-04-15 06:00",37.9426004373633,"Approved","OW403"
"2023-04-15 07:00",37.9395929397063,"Approved","OW403"
"2023-04-15 08:00",37.9365854420494,"Approved","OW403"
"2023-04-15 09:00",37.9355779443924,"Approved","OW403"
"2023-04-15 10:00",37.9365704467354,"Approved","OW403"
"2023-04-15 11:00",37.9345629490784,"Approved","OW403"
"2023-04-15 12:00",37.9345554514214,"Approved","OW403"
"2023-04-15 13:00",37.9335479537645,"Approved","OW403"
"2023-04-15 14:00",37.9335404561075,"Approved","OW403"
"2023-04-15 15:00",37.9355329584505,"Approved","OW403"
"2023-04-15 16:00",37.9395254607935,"Approved","OW403"
"2023-04-15 17:00",37.9475179631365,"Approved","OW403"
"2023-04-15 18:00",37.9475104654795,"Approved","OW403"
"2023-04-15 19:00",37.9505029678226,"Approved","OW403"
"2023-04-15 20:00",37.9534954701656,"Approved","OW403"
"2023-04-15 21:00",37.9464879725086,"Approved","OW403"
"2023-04-15 22:00",37.9454804748516,"Approved","OW403"
"2023-04-15 23:00",37.9464729771946,"Approved","OW403"
"2023-04-16 00:00",37.9444654795376,"Approved","OW403"
"2023-04-16 01:00",37.9424579818807,"Approved","OW403"
"2023-04-16 02:00",37.9414504842237,"Approved","OW403"
"2023-04-16 03:00",37.9394429865667,"Approved","OW403"
"2023-04-16 04:00",37.9364354889097,"Approved","OW403"
"2023-04-16 05:00",37.9384279912527,"Approved","OW403"
"2023-04-16 06:00",37.9344204935958,"Approved","OW403"
"2023-04-16 07:00",37.9294129959388,"Approved","OW403"
"2023-04-16 08:00",37.9264054982818,"Approved","OW403"
"2023-04-16 09:00",37.9243980006248,"Approved","OW403"
"2023-04-16 10:00",37.9213905029678,"Approved","OW403"
"2023-04-16 11:00",37.9153830053108,"Approved","OW403"
"2023-04-16 12:00",37.9143755076539,"Approved","OW403"
"2023-04-16 13:00",37.9133680099969,"Approved","OW403"
"2023-04-16 14:00",37.9143605123399,"Approved","OW403"
"2023-04-16 15:00",37.9153530146829,"Approved","OW403"
"2023-04-16 16:00",37.9163455170259,"Approved","OW403"
"2023-04-16 17:00",37.9173380193689,"Approved","OW403"
"2023-04-16 18:00",37.917330521712,"Approved","OW403"
"2023-04-16 19:00",37.921323024055,"Approved","OW403"